This is the latest recevied weather packets stored in our database for station/object W8CWV-13. If no packets are shown the sender has not sent any weather packets the latest 10 day(s).
| Time | Temp. | Humidity | Pressure | Rain* | Wind** | Luminosity | Snow |
|---|---|---|---|---|---|---|---|
| 1778114736 | 15.56° C | 100% | 1017.1 hPa | - | - | - | - |
| 1778114163 | 16.11° C | 100% | 1016.9 hPa | - | - | - | - |
| 1778113588 | 16.11° C | 100% | 1016.9 hPa | - | - | - | - |
| 1778113016 | 16.11° C | 100% | 1016.7 hPa | - | - | - | - |
| 1778112446 | 16.11° C | 100% | 1016.2 hPa | - | - | - | - |
| 1778111872 | 16.67° C | 100% | 1015.5 hPa | - | - | - | - |
| 1778111299 | 16.67° C | 100% | 1014.9 hPa | - | - | - | - |
| 1778110729 | 16.67° C | 100% | 1014.4 hPa | - | - | - | - |
| 1778110155 | 17.22° C | 100% | 1014.2 hPa | - | - | - | - |
| 1778109583 | 17.22° C | 100% | 1013.8 hPa | - | - | - | - |
| 1778109012 | 17.78° C | 100% | 1013.2 hPa | - | - | - | - |
| 1778108444 | 17.78° C | 100% | 1013 hPa | - | - | - | - |
| 1778107868 | 17.78° C | 100% | 1013 hPa | - | - | - | - |
| 1778107300 | 18.33° C | 100% | 1012.8 hPa | - | - | - | - |
| 1778106729 | 18.33° C | 100% | 1013 hPa | - | - | - | - |
| 1778106149 | 18.33° C | 100% | 1013 hPa | - | - | - | - |
| 1778105574 | 18.89° C | 100% | 1012.8 hPa | - | - | - | - |
| 1778105004 | 19.44° C | 100% | 1012.9 hPa | - | - | - | - |
| 1778104432 | 18.89° C | 100% | 1013.9 hPa | - | - | - | - |
| 1778103855 | 19.44° C | 100% | 1016.5 hPa | - | - | - | - |
| 1778103280 | 19.44° C | 100% | 1017.2 hPa | - | - | - | - |
| 1778102703 | 18.89° C | 100% | 1016.2 hPa | - | - | - | - |
| 1778102128 | 18.89° C | 100% | 1014.7 hPa | - | - | - | - |
| 1778101559 | 18.89° C | 100% | 1013.3 hPa | - | - | - | - |
| 1778100990 | 19.44° C | 100% | 1012.4 hPa | - | - | - | - |
* Rain since midnight (hover to see other rain measurements)
** Current wind speed in m/s (hover to see current wind gust speed)